COSMOS 1275 DEB, 39945

Orbit data source: Space-Track

COSMOS 1275 DEB, 39945 is space debris in LEO originally from a launch on Thu, 04 Jun 1981 UTC launched from the Plesetsk Missile And Space Complex (PKMTR). Debris objects in space refer to the collection of defunct objects orbiting the Earth. Examples of debris include non-operational satellites, rocket bodies, and fragments generated from explosions, collisions, or faulty payload assembly.

Loading next visibility...
Identifier
39945, 1981-053NF
Orbit
LEO
Country
Flag of CISCIS
Related business
Manufacturer
Unknown
Mission
Spacecraft
Bus & Motor
Unknown
Mass
Unknown
Launch date (UTC)
1981-06-04 (45 years ago)
Launch vehicle
Unknown
Launch site
Plesetsk Missile And Space Complex (PKMTR)
Object type
Payload
Rocket body
Debris
Shape & HBR
Unknown shape, 0.1 m
Radar Cross Section
Small (<0.1 m²)

Expand to show TLE details & history
Last TLE update: 8 hours ago

TLE from 8 hours ago
0 COSMOS 1275 DEB
1 39945U 81053NF  26112.11741030  .00000261  00000-0  23288-3 0  9991
2 39945  82.9515 250.6324 0040537 153.1811  25.7499 13.80486598598025
Epoch: 2026-04-22T02:49Z
TLE epoch observation values (Epoch: 2026-04-22T02:49:04.249Z)
Latitude
0.74907°
Longitude
178.08911°
Altitude
938.192 km
Speed
7.396 km/s
True Right ascension
04h 42m 09s
True Declination
0° 44' 41"
Sunlit
Object was in daylight at epoch
Visualization orbit readout
Latitude
Unknown
Longitude
Unknown
Altitude
Unknown
Speed
Unknown
Apparent Right ascension
Unknown
Apparent Declination
Unknown
Sunlit
N/A
Visualization observer readout
Local Sidereal Time
17:45:28
Azimuth
Unknown
Elevation
Unknown
Doppler factor
Unknown
Orbital elements
Apogee altitude
989.046 km
Perigee altitude
929.558 km
Semi-major axis
7,337.439 km
Eccentricity
0.00405
Inclination
82.9515°
RAAN
250.6324°
Arg. of periapsis
153.1811°
True anomaly
25.95263°
Mean anomaly
25.7499°
Eccentric anomaly
25.85117°
Mean motion
3.45324 °/min
Orbital period
104.25 mins
BSTAR
0.00023288
Loading maneuver chart data...
Computing Atmospheric mass density...

Documentation

Showing up to 5 results
|